Year,Month,Day,Hour,Minute,Value (Times are PST for temperature in C)
2015,09,26,00,00,9.80
2015,09,26,00,01,9.80
2015,09,26,00,02,9.80
2015,09,26,00,03,9.70
2015,09,26,00,04,9.70
2015,09,26,00,05,9.70
2015,09,26,00,06,9.70
2015,09,26,00,07,9.70
2015,09,26,00,08,9.70
2015,09,26,00,09,9.70
2015,09,26,00,10,9.70
2015,09,26,00,11,9.70
2015,09,26,00,12,9.70
2015,09,26,00,13,9.70
2015,09,26,00,14,9.70
2015,09,26,00,15,9.70
2015,09,26,00,16,9.70
2015,09,26,00,17,9.70
2015,09,26,00,18,9.70
2015,09,26,00,19,9.70
2015,09,26,00,20,9.70
2015,09,26,00,21,9.70
2015,09,26,00,22,9.70
2015,09,26,00,23,9.70
2015,09,26,00,24,9.70
2015,09,26,00,25,9.70
2015,09,26,00,26,9.70
2015,09,26,00,27,9.70
2015,09,26,00,28,9.70
2015,09,26,00,29,9.70
2015,09,26,00,30,9.70
2015,09,26,00,31,9.70
2015,09,26,00,32,9.70
2015,09,26,00,33,9.70
2015,09,26,00,34,9.70
2015,09,26,00,35,9.70
2015,09,26,00,36,9.70
2015,09,26,00,37,9.70
2015,09,26,00,38,9.70
2015,09,26,00,39,9.70
2015,09,26,00,40,9.70
2015,09,26,00,41,9.70
2015,09,26,00,42,9.70
2015,09,26,00,43,9.70
2015,09,26,00,44,9.70
2015,09,26,00,45,9.60
2015,09,26,00,46,9.70
2015,09,26,00,47,9.70
2015,09,26,00,48,9.70
2015,09,26,00,49,9.70
2015,09,26,00,50,9.70
2015,09,26,00,51,9.70
2015,09,26,00,52,9.70
2015,09,26,00,53,9.70
2015,09,26,00,54,9.70
2015,09,26,00,55,9.70
2015,09,26,00,56,9.70
2015,09,26,00,57,9.70
2015,09,26,00,58,9.70
2015,09,26,00,59,9.70
2015,09,26,01,00,9.70
2015,09,26,01,01,9.70
2015,09,26,01,02,9.70
2015,09,26,01,03,9.70
2015,09,26,01,04,9.70
2015,09,26,01,05,9.70
2015,09,26,01,06,9.70
2015,09,26,01,07,9.70
2015,09,26,01,08,9.70
2015,09,26,01,09,9.70
2015,09,26,01,10,9.70
2015,09,26,01,11,9.60
2015,09,26,01,12,9.60
2015,09,26,01,13,9.70
2015,09,26,01,14,9.60
2015,09,26,01,15,9.70
2015,09,26,01,16,9.70
2015,09,26,01,17,9.70
2015,09,26,01,18,9.70
2015,09,26,01,19,9.70
2015,09,26,01,20,9.70
2015,09,26,01,21,9.70
2015,09,26,01,22,9.70
2015,09,26,01,23,9.70
2015,09,26,01,24,9.60
2015,09,26,01,25,9.60
2015,09,26,01,26,9.60
2015,09,26,01,27,9.60
2015,09,26,01,28,9.60
2015,09,26,01,29,9.60
2015,09,26,01,30,9.60
2015,09,26,01,31,9.60
2015,09,26,01,32,9.60
2015,09,26,01,33,9.60
2015,09,26,01,34,9.60
2015,09,26,01,35,9.60
2015,09,26,01,36,9.60
2015,09,26,01,37,9.50
2015,09,26,01,38,9.50
2015,09,26,01,39,9.50
2015,09,26,01,40,9.50
2015,09,26,01,41,9.50
2015,09,26,01,42,9.50
2015,09,26,01,43,9.50
2015,09,26,01,44,9.50
2015,09,26,01,45,9.40
2015,09,26,01,46,9.40
2015,09,26,01,47,9.40
2015,09,26,01,48,9.40
2015,09,26,01,49,9.40
2015,09,26,01,50,9.40
2015,09,26,01,51,9.40
2015,09,26,01,52,9.40
2015,09,26,01,53,9.40
2015,09,26,01,54,9.40
2015,09,26,01,55,9.40
2015,09,26,01,56,9.40
2015,09,26,01,57,9.40
2015,09,26,01,58,9.40
2015,09,26,01,59,9.40
2015,09,26,02,00,9.30
2015,09,26,02,01,9.30
2015,09,26,02,02,9.30
2015,09,26,02,03,9.30
2015,09,26,02,04,9.30
2015,09,26,02,05,9.20
2015,09,26,02,06,9.20
2015,09,26,02,07,9.10
2015,09,26,02,08,9.10
2015,09,26,02,09,9.10
2015,09,26,02,10,9.10
2015,09,26,02,11,9.10
2015,09,26,02,12,9.10
2015,09,26,02,13,9.10
2015,09,26,02,14,9.10
2015,09,26,02,15,9.10
2015,09,26,02,16,9.10
2015,09,26,02,17,9.10
2015,09,26,02,18,9.10
2015,09,26,02,19,9.00
2015,09,26,02,20,9.00
2015,09,26,02,21,9.00
2015,09,26,02,22,8.90
2015,09,26,02,23,8.90
2015,09,26,02,24,8.90
2015,09,26,02,25,8.90
2015,09,26,02,26,8.80
2015,09,26,02,27,8.80
2015,09,26,02,28,8.80
2015,09,26,02,29,8.80
2015,09,26,02,30,8.80
2015,09,26,02,31,8.80
2015,09,26,02,32,8.80
2015,09,26,02,33,8.70
2015,09,26,02,34,8.70
2015,09,26,02,35,8.70
2015,09,26,02,36,8.70
2015,09,26,02,37,8.70
2015,09,26,02,38,8.70
2015,09,26,02,39,8.70
2015,09,26,02,40,8.60
2015,09,26,02,41,8.60
2015,09,26,02,42,8.60
2015,09,26,02,43,8.60
2015,09,26,02,44,8.60
2015,09,26,02,45,8.60
2015,09,26,02,46,8.60
2015,09,26,02,47,8.50
2015,09,26,02,48,8.50
2015,09,26,02,49,8.50
2015,09,26,02,50,8.50
2015,09,26,02,51,8.50
2015,09,26,02,52,8.50
2015,09,26,02,53,8.50
2015,09,26,02,54,8.50
2015,09,26,02,55,8.50
2015,09,26,02,56,8.50
2015,09,26,02,57,8.50
2015,09,26,02,58,8.50
2015,09,26,02,59,8.50
2015,09,26,03,00,8.50
2015,09,26,03,01,8.50
2015,09,26,03,02,8.50
2015,09,26,03,03,8.50
2015,09,26,03,04,8.60
2015,09,26,03,05,8.60
2015,09,26,03,06,8.60
2015,09,26,03,07,8.60
2015,09,26,03,08,8.70
2015,09,26,03,09,8.70
2015,09,26,03,10,8.70
2015,09,26,03,11,8.70
2015,09,26,03,12,8.70
2015,09,26,03,13,8.70
2015,09,26,03,14,8.70
2015,09,26,03,15,8.70
2015,09,26,03,16,8.70
2015,09,26,03,17,8.70
2015,09,26,03,18,8.70
2015,09,26,03,19,8.70
2015,09,26,03,20,8.70
2015,09,26,03,21,8.70
2015,09,26,03,22,8.70
2015,09,26,03,23,8.70
2015,09,26,03,24,8.70
2015,09,26,03,25,8.70
2015,09,26,03,26,8.70
2015,09,26,03,27,8.70
2015,09,26,03,28,8.70
2015,09,26,03,29,8.70
2015,09,26,03,30,8.70
2015,09,26,03,31,8.70
2015,09,26,03,32,8.70
2015,09,26,03,33,8.70
2015,09,26,03,34,8.70
2015,09,26,03,35,8.70
2015,09,26,03,36,8.70
2015,09,26,03,37,8.70
2015,09,26,03,38,8.70
2015,09,26,03,39,8.70
2015,09,26,03,40,8.70
2015,09,26,03,41,8.70
2015,09,26,03,42,8.70
2015,09,26,03,43,8.70
2015,09,26,03,44,8.70
2015,09,26,03,45,8.60
2015,09,26,03,46,8.70
2015,09,26,03,47,8.60
2015,09,26,03,48,8.60
2015,09,26,03,49,8.60
2015,09,26,03,50,8.60
2015,09,26,03,51,8.60
2015,09,26,03,52,8.60
2015,09,26,03,53,8.60
2015,09,26,03,54,8.60
2015,09,26,03,55,8.60
2015,09,26,03,56,8.60
2015,09,26,03,57,8.60
2015,09,26,03,58,8.60
2015,09,26,03,59,8.60
2015,09,26,04,00,8.60
2015,09,26,04,01,8.60
2015,09,26,04,02,8.60
2015,09,26,04,03,8.60
2015,09,26,04,04,8.60
2015,09,26,04,05,8.60
2015,09,26,04,06,8.60
2015,09,26,04,07,8.70
2015,09,26,04,08,8.70
2015,09,26,04,09,8.70
2015,09,26,04,10,8.70
2015,09,26,04,11,8.70
2015,09,26,04,12,8.70
2015,09,26,04,13,8.70
2015,09,26,04,14,8.70
2015,09,26,04,15,8.70
2015,09,26,04,16,8.70
2015,09,26,04,17,8.70
2015,09,26,04,18,8.70
2015,09,26,04,19,8.70
2015,09,26,04,20,8.70
2015,09,26,04,21,8.70
2015,09,26,04,22,8.70
2015,09,26,04,23,8.70
2015,09,26,04,24,8.70
2015,09,26,04,25,8.70
2015,09,26,04,26,8.70
2015,09,26,04,27,8.70
2015,09,26,04,28,8.70
2015,09,26,04,29,8.70
2015,09,26,04,30,8.70
2015,09,26,04,31,8.70
2015,09,26,04,32,8.60
2015,09,26,04,33,8.60
2015,09,26,04,34,8.60
2015,09,26,04,35,8.60
2015,09,26,04,36,8.60
2015,09,26,04,37,8.60
2015,09,26,04,38,8.60
2015,09,26,04,39,8.60
2015,09,26,04,40,8.60
2015,09,26,04,41,8.60
2015,09,26,04,42,8.60
2015,09,26,04,43,8.60
2015,09,26,04,44,8.60
2015,09,26,04,45,8.60
2015,09,26,04,46,8.60
2015,09,26,04,47,8.60
2015,09,26,04,48,8.60
2015,09,26,04,49,8.60
2015,09,26,04,50,8.60
2015,09,26,04,51,8.60
2015,09,26,04,52,8.60
2015,09,26,04,53,8.60
2015,09,26,04,54,8.60
2015,09,26,04,55,8.60
2015,09,26,04,56,8.60
2015,09,26,04,57,8.60
2015,09,26,04,58,8.60
2015,09,26,04,59,8.60
2015,09,26,05,00,8.60
2015,09,26,05,01,8.60
2015,09,26,05,02,8.60
2015,09,26,05,03,8.60
2015,09,26,05,04,8.60
2015,09,26,05,05,8.60
2015,09,26,05,06,8.60
2015,09,26,05,07,8.60
2015,09,26,05,08,8.60
2015,09,26,05,09,8.60
2015,09,26,05,10,8.60
2015,09,26,05,11,8.60
2015,09,26,05,12,8.60
2015,09,26,05,13,8.50
2015,09,26,05,14,8.50
2015,09,26,05,15,8.50
2015,09,26,05,16,8.50
2015,09,26,05,17,8.50
2015,09,26,05,18,8.50
2015,09,26,05,19,8.50
2015,09,26,05,20,8.50
2015,09,26,05,21,8.50
2015,09,26,05,22,8.50
2015,09,26,05,23,8.40
2015,09,26,05,24,8.40
2015,09,26,05,25,8.40
2015,09,26,05,26,8.40
2015,09,26,05,27,8.40
2015,09,26,05,28,8.40
2015,09,26,05,29,8.40
2015,09,26,05,30,8.40
2015,09,26,05,31,8.40
2015,09,26,05,32,8.40
2015,09,26,05,33,8.40
2015,09,26,05,34,8.40
2015,09,26,05,35,8.40
2015,09,26,05,36,8.30
2015,09,26,05,37,8.30
2015,09,26,05,38,8.30
2015,09,26,05,39,8.30
2015,09,26,05,40,8.30
2015,09,26,05,41,8.30
2015,09,26,05,42,8.30
2015,09,26,05,43,8.30
2015,09,26,05,44,8.30
2015,09,26,05,45,8.30
2015,09,26,05,46,8.30
2015,09,26,05,47,8.30
2015,09,26,05,48,8.20
2015,09,26,05,49,8.20
2015,09,26,05,50,8.20
2015,09,26,05,51,8.20
2015,09,26,05,52,8.20
2015,09,26,05,53,8.20
2015,09,26,05,54,8.20
2015,09,26,05,55,8.20
2015,09,26,05,56,8.20
2015,09,26,05,57,8.20
2015,09,26,05,58,8.20
2015,09,26,05,59,8.20
2015,09,26,06,00,8.20
2015,09,26,06,01,8.20
2015,09,26,06,02,8.20
2015,09,26,06,03,8.20
2015,09,26,06,04,8.20
2015,09,26,06,05,8.20
2015,09,26,06,06,8.20
2015,09,26,06,07,8.20
2015,09,26,06,08,8.20
2015,09,26,06,09,8.10
2015,09,26,06,10,8.10
2015,09,26,06,11,8.10
2015,09,26,06,12,8.10
2015,09,26,06,13,8.10
2015,09,26,06,14,8.10
2015,09,26,06,15,8.10
2015,09,26,06,16,8.10
2015,09,26,06,17,8.10
2015,09,26,06,18,8.10
2015,09,26,06,19,8.00
2015,09,26,06,20,8.00
2015,09,26,06,21,8.00
2015,09,26,06,22,8.00
2015,09,26,06,23,8.00
2015,09,26,06,24,8.00
2015,09,26,06,25,7.90
2015,09,26,06,26,7.90
2015,09,26,06,27,7.90
2015,09,26,06,28,7.90
2015,09,26,06,29,7.90
2015,09,26,06,30,7.90
2015,09,26,06,31,7.80
2015,09,26,06,32,7.80
2015,09,26,06,33,7.80
2015,09,26,06,34,7.80
2015,09,26,06,35,7.80
2015,09,26,06,36,7.80
2015,09,26,06,37,7.80
2015,09,26,06,38,7.80
2015,09,26,06,39,7.80
2015,09,26,06,40,7.80
2015,09,26,06,41,7.80
2015,09,26,06,42,7.70
2015,09,26,06,43,7.70
2015,09,26,06,44,7.70
2015,09,26,06,45,7.70
2015,09,26,06,46,7.70
2015,09,26,06,47,7.60
2015,09,26,06,48,7.60
2015,09,26,06,49,7.60
2015,09,26,06,50,7.60
2015,09,26,06,51,7.60
2015,09,26,06,52,7.60
2015,09,26,06,53,7.60
2015,09,26,06,54,7.60
2015,09,26,06,55,7.60
2015,09,26,06,56,7.60
2015,09,26,06,57,7.60
2015,09,26,06,58,7.50
2015,09,26,06,59,7.50
2015,09,26,07,00,7.50
2015,09,26,07,01,7.50
2015,09,26,07,02,7.50
2015,09,26,07,03,7.50
2015,09,26,07,04,7.40
2015,09,26,07,05,7.40
2015,09,26,07,06,7.40
2015,09,26,07,07,7.40
2015,09,26,07,08,7.40
2015,09,26,07,09,7.40
2015,09,26,07,10,7.40
2015,09,26,07,11,7.40
2015,09,26,07,12,7.40
2015,09,26,07,13,7.40
2015,09,26,07,14,7.40
2015,09,26,07,15,7.40
2015,09,26,07,16,7.40
2015,09,26,07,17,7.40
2015,09,26,07,18,7.40
2015,09,26,07,19,7.30
2015,09,26,07,20,7.30
2015,09,26,07,21,7.30
2015,09,26,07,22,7.30
2015,09,26,07,23,7.30
2015,09,26,07,24,7.30
2015,09,26,07,25,7.30
2015,09,26,07,26,7.30
2015,09,26,07,27,7.30
2015,09,26,07,28,7.30
2015,09,26,07,29,7.30
2015,09,26,07,30,7.30
2015,09,26,07,31,7.30
2015,09,26,07,32,7.20
2015,09,26,07,33,7.20
2015,09,26,07,34,7.20
2015,09,26,07,35,7.20
2015,09,26,07,36,7.10
2015,09,26,07,37,7.10
2015,09,26,07,38,7.10
2015,09,26,07,39,7.00
2015,09,26,07,40,7.00
2015,09,26,07,41,7.00
2015,09,26,07,42,7.00
2015,09,26,07,43,6.90
2015,09,26,07,44,6.90
2015,09,26,07,45,6.90
2015,09,26,07,46,6.90
2015,09,26,07,47,6.90
2015,09,26,07,48,6.90
2015,09,26,07,49,6.90
2015,09,26,07,50,6.90
2015,09,26,07,51,6.90
2015,09,26,07,52,6.90
2015,09,26,07,53,6.90
2015,09,26,07,54,6.90
2015,09,26,07,55,6.90
2015,09,26,07,56,6.90
2015,09,26,07,57,6.90
2015,09,26,07,58,6.90
2015,09,26,07,59,6.90
2015,09,26,08,00,6.90
2015,09,26,08,01,6.80
2015,09,26,08,02,6.80
2015,09,26,08,03,6.80
2015,09,26,08,04,6.80
2015,09,26,08,05,6.80
2015,09,26,08,06,6.80
2015,09,26,08,07,6.80
2015,09,26,08,08,6.80
2015,09,26,08,09,6.80
2015,09,26,08,10,6.70
2015,09,26,08,11,6.70
2015,09,26,08,12,6.70
2015,09,26,08,13,6.70
2015,09,26,08,14,6.70
2015,09,26,08,15,6.70
2015,09,26,08,16,6.70
2015,09,26,08,17,6.70
2015,09,26,08,18,6.70
2015,09,26,08,19,6.70
2015,09,26,08,20,6.70
2015,09,26,08,21,6.60
2015,09,26,08,22,6.60
2015,09,26,08,23,6.60
2015,09,26,08,24,6.60
2015,09,26,08,25,6.60
2015,09,26,08,26,6.60
2015,09,26,08,27,6.60
2015,09,26,08,28,6.60
2015,09,26,08,29,6.60
2015,09,26,08,30,6.50
2015,09,26,08,31,6.50
2015,09,26,08,32,6.50
2015,09,26,08,33,6.40
2015,09,26,08,34,6.40
2015,09,26,08,35,6.40
2015,09,26,08,36,6.40
2015,09,26,08,37,6.40
2015,09,26,08,38,6.40
2015,09,26,08,39,6.40
2015,09,26,08,40,6.40
2015,09,26,08,41,6.30
2015,09,26,08,42,6.30
2015,09,26,08,43,6.30
2015,09,26,08,44,6.30
2015,09,26,08,45,6.30
2015,09,26,08,46,6.30
2015,09,26,08,47,6.30
2015,09,26,08,48,6.30
2015,09,26,08,49,6.30
2015,09,26,08,50,6.30
2015,09,26,08,51,6.30
2015,09,26,08,52,6.40
2015,09,26,08,53,6.40
2015,09,26,08,54,6.40
2015,09,26,08,55,6.40
2015,09,26,08,56,6.40
2015,09,26,08,57,6.40
2015,09,26,08,58,6.40
2015,09,26,08,59,6.40
2015,09,26,09,00,6.40
2015,09,26,09,01,6.40
2015,09,26,09,02,6.50
2015,09,26,09,03,6.50
2015,09,26,09,04,6.50
2015,09,26,09,05,6.40
2015,09,26,09,06,6.40
2015,09,26,09,07,6.50
2015,09,26,09,08,6.40
2015,09,26,09,09,6.40
2015,09,26,09,10,6.40
2015,09,26,09,11,6.40
2015,09,26,09,12,6.40
2015,09,26,09,13,6.40
2015,09,26,09,14,6.40
2015,09,26,09,15,6.40
2015,09,26,09,16,6.40
2015,09,26,09,17,6.40
2015,09,26,09,18,6.40
2015,09,26,09,19,6.40
2015,09,26,09,20,6.40
2015,09,26,09,21,6.40
2015,09,26,09,22,6.40
2015,09,26,09,23,6.40
2015,09,26,09,24,6.40
2015,09,26,09,25,6.40
2015,09,26,09,26,6.40
2015,09,26,09,27,6.40
2015,09,26,09,28,6.30
2015,09,26,09,29,6.30
2015,09,26,09,30,6.30
2015,09,26,09,31,6.30
2015,09,26,09,32,6.30
2015,09,26,09,33,6.30
2015,09,26,09,34,6.30
2015,09,26,09,35,6.30
2015,09,26,09,36,6.30
2015,09,26,09,37,6.30
2015,09,26,09,38,6.30
2015,09,26,09,39,6.30
2015,09,26,09,40,6.30
2015,09,26,09,41,6.30
2015,09,26,09,42,6.30
2015,09,26,09,43,6.30
2015,09,26,09,44,6.30
2015,09,26,09,45,6.30
2015,09,26,09,46,6.30
2015,09,26,09,47,6.30
2015,09,26,09,48,6.30
2015,09,26,09,49,6.30
2015,09,26,09,50,6.30
2015,09,26,09,51,6.30
2015,09,26,09,52,6.40
2015,09,26,09,53,6.40
2015,09,26,09,54,6.50
2015,09,26,09,55,6.50
2015,09,26,09,56,6.60
2015,09,26,09,57,6.70
2015,09,26,09,58,6.80
2015,09,26,09,59,6.80
2015,09,26,10,00,6.80
2015,09,26,10,01,6.70
2015,09,26,10,02,6.70
2015,09,26,10,03,6.70
2015,09,26,10,04,6.70
2015,09,26,10,05,6.70
2015,09,26,10,06,6.70
2015,09,26,10,07,6.70
2015,09,26,10,08,6.70
2015,09,26,10,09,6.70
2015,09,26,10,10,6.70
2015,09,26,10,11,6.70
2015,09,26,10,12,6.70
2015,09,26,10,13,6.70
2015,09,26,10,14,6.70
2015,09,26,10,15,6.70
2015,09,26,10,16,6.70
2015,09,26,10,17,6.70
2015,09,26,10,18,6.80
2015,09,26,10,19,6.80
2015,09,26,10,20,6.80
2015,09,26,10,21,6.80
2015,09,26,10,22,6.80
2015,09,26,10,23,6.80
2015,09,26,10,24,6.80
2015,09,26,10,25,6.90
2015,09,26,10,26,6.90
2015,09,26,10,27,6.90
2015,09,26,10,28,6.90
2015,09,26,10,29,7.00
2015,09,26,10,30,7.00
2015,09,26,10,31,7.10
2015,09,26,10,32,7.10
2015,09,26,10,33,7.10
2015,09,26,10,34,7.10
2015,09,26,10,35,7.20
2015,09,26,10,36,7.20
2015,09,26,10,37,7.30
2015,09,26,10,38,7.30
2015,09,26,10,39,7.40
2015,09,26,10,40,7.50
2015,09,26,10,41,7.60
2015,09,26,10,42,7.70
2015,09,26,10,43,7.80
2015,09,26,10,44,7.80
2015,09,26,10,45,8.00
2015,09,26,10,46,8.10
2015,09,26,10,47,8.20
2015,09,26,10,48,8.30
2015,09,26,10,49,8.40
2015,09,26,10,50,8.50
2015,09,26,10,51,8.60
2015,09,26,10,52,8.70
2015,09,26,10,53,8.80
2015,09,26,10,54,8.80
2015,09,26,10,55,8.90
2015,09,26,10,56,9.00
2015,09,26,10,57,9.00
2015,09,26,10,58,9.10
2015,09,26,10,59,9.20
2015,09,26,11,00,9.30
2015,09,26,11,01,9.40
2015,09,26,11,02,9.40
2015,09,26,11,03,9.50
2015,09,26,11,04,9.50
2015,09,26,11,05,9.50
2015,09,26,11,06,9.60
2015,09,26,11,07,9.60
2015,09,26,11,08,9.60
2015,09,26,11,09,9.60
2015,09,26,11,10,9.70
2015,09,26,11,11,9.70
2015,09,26,11,12,9.70
2015,09,26,11,13,9.70
2015,09,26,11,14,9.70
2015,09,26,11,15,9.80
2015,09,26,11,16,9.80
2015,09,26,11,17,9.90
2015,09,26,11,18,9.90
2015,09,26,11,19,10.00
2015,09,26,11,20,10.00
2015,09,26,11,21,10.10
2015,09,26,11,22,10.10
2015,09,26,11,23,10.20
2015,09,26,11,24,10.20
2015,09,26,11,25,10.30
2015,09,26,11,26,10.30
2015,09,26,11,27,10.40
2015,09,26,11,28,10.50
2015,09,26,11,29,10.50
2015,09,26,11,30,10.60
2015,09,26,11,31,10.70
2015,09,26,11,32,10.70
2015,09,26,11,33,10.80
2015,09,26,11,34,10.80
2015,09,26,11,35,10.80
2015,09,26,11,36,10.80
2015,09,26,11,37,10.80
2015,09,26,11,38,10.90
2015,09,26,11,39,11.00
2015,09,26,11,40,11.00
2015,09,26,11,41,11.20
2015,09,26,11,42,11.30
2015,09,26,11,43,11.40
2015,09,26,11,44,11.50
2015,09,26,11,45,11.60
2015,09,26,11,46,11.80
2015,09,26,11,47,11.90
2015,09,26,11,48,11.90
2015,09,26,11,49,12.10
2015,09,26,11,50,12.20
2015,09,26,11,51,12.30
2015,09,26,11,52,12.30
2015,09,26,11,53,12.40
2015,09,26,11,54,12.40
2015,09,26,11,55,12.40
2015,09,26,11,56,12.40
2015,09,26,11,57,12.50
2015,09,26,11,58,12.50
2015,09,26,11,59,12.50
2015,09,26,12,00,12.60
2015,09,26,12,01,12.70
2015,09,26,12,02,12.70
2015,09,26,12,03,12.80
2015,09,26,12,04,12.90
2015,09,26,12,05,12.90
2015,09,26,12,06,13.00
2015,09,26,12,07,13.00
2015,09,26,12,08,13.10
2015,09,26,12,09,13.20
2015,09,26,12,10,13.30
2015,09,26,12,11,13.30
2015,09,26,12,12,13.40
2015,09,26,12,13,13.40
2015,09,26,12,14,13.40
2015,09,26,12,15,13.50
2015,09,26,12,16,13.50
2015,09,26,12,17,13.60
2015,09,26,12,18,13.60
2015,09,26,12,19,13.60
2015,09,26,12,20,13.60
2015,09,26,12,21,13.60
2015,09,26,12,22,13.70
2015,09,26,12,23,13.70
2015,09,26,12,24,13.80
2015,09,26,12,25,13.90
2015,09,26,12,26,13.90
2015,09,26,12,27,14.00
2015,09,26,12,28,14.10
2015,09,26,12,29,14.20
2015,09,26,12,30,14.20
2015,09,26,12,31,14.20
2015,09,26,12,32,14.30
2015,09,26,12,33,14.30
2015,09,26,12,34,14.30
2015,09,26,12,35,14.40
2015,09,26,12,36,14.40
2015,09,26,12,37,14.40
2015,09,26,12,38,14.50
2015,09,26,12,39,14.50
2015,09,26,12,40,14.50
2015,09,26,12,41,14.50
2015,09,26,12,42,14.50
2015,09,26,12,43,14.60
2015,09,26,12,44,14.60
2015,09,26,12,45,14.60
2015,09,26,12,46,14.60
2015,09,26,12,47,14.70
2015,09,26,12,48,14.70
2015,09,26,12,49,14.80
2015,09,26,12,50,14.80
2015,09,26,12,51,14.80
2015,09,26,12,52,14.70
2015,09,26,12,53,14.70
2015,09,26,12,54,14.70
2015,09,26,12,55,14.70
2015,09,26,12,56,14.70
2015,09,26,12,57,14.70
2015,09,26,12,58,14.70
2015,09,26,12,59,14.80
2015,09,26,13,00,14.80
2015,09,26,13,01,14.90
2015,09,26,13,02,14.90
2015,09,26,13,03,15.00
2015,09,26,13,04,15.10
2015,09,26,13,05,15.10
2015,09,26,13,06,15.20
2015,09,26,13,07,15.20
2015,09,26,13,08,15.30
2015,09,26,13,09,15.30
2015,09,26,13,10,15.40
2015,09,26,13,11,15.40
2015,09,26,13,12,15.40
2015,09,26,13,13,15.40
2015,09,26,13,14,15.30
2015,09,26,13,15,15.30
2015,09,26,13,16,15.20
2015,09,26,13,17,15.20
2015,09,26,13,18,15.30
2015,09,26,13,19,15.30
2015,09,26,13,20,15.30
2015,09,26,13,21,15.30
2015,09,26,13,22,15.30
2015,09,26,13,23,15.30
2015,09,26,13,24,15.40
2015,09,26,13,25,15.50
2015,09,26,13,26,15.50
2015,09,26,13,27,15.60
2015,09,26,13,28,15.70
2015,09,26,13,29,15.80
2015,09,26,13,30,15.80
2015,09,26,13,31,15.80
2015,09,26,13,32,15.80
2015,09,26,13,33,15.90
2015,09,26,13,34,15.90
2015,09,26,13,35,16.00
2015,09,26,13,36,16.10
2015,09,26,13,37,16.10
2015,09,26,13,38,16.20
2015,09,26,13,39,16.30
2015,09,26,13,40,16.30
2015,09,26,13,41,16.40
2015,09,26,13,42,16.40
2015,09,26,13,43,16.50
2015,09,26,13,44,16.50
2015,09,26,13,45,16.50
2015,09,26,13,46,16.60
2015,09,26,13,47,16.70
2015,09,26,13,48,16.70
2015,09,26,13,49,16.80
2015,09,26,13,50,16.80
2015,09,26,13,51,16.80
2015,09,26,13,52,16.80
2015,09,26,13,53,16.80
2015,09,26,13,54,16.80
2015,09,26,13,55,16.80
2015,09,26,13,56,16.80
2015,09,26,13,57,16.80
2015,09,26,13,58,16.80
2015,09,26,13,59,16.80
2015,09,26,14,00,16.90
2015,09,26,14,01,16.90
2015,09,26,14,02,16.90
2015,09,26,14,03,16.90
2015,09,26,14,04,16.80
2015,09,26,14,05,16.80
2015,09,26,14,06,16.80
2015,09,26,14,07,16.90
2015,09,26,14,08,16.90
2015,09,26,14,09,17.00
2015,09,26,14,10,17.00
2015,09,26,14,11,17.00
2015,09,26,14,12,17.00
2015,09,26,14,13,17.10
2015,09,26,14,14,17.10
2015,09,26,14,15,17.10
2015,09,26,14,16,17.00
2015,09,26,14,17,17.10
2015,09,26,14,18,17.10
2015,09,26,14,19,17.20
2015,09,26,14,20,17.20
2015,09,26,14,21,17.20
2015,09,26,14,22,17.20
2015,09,26,14,23,17.20
2015,09,26,14,24,17.20
2015,09,26,14,25,17.20
2015,09,26,14,26,17.20
2015,09,26,14,27,17.20
2015,09,26,14,28,17.20
2015,09,26,14,29,17.30
2015,09,26,14,30,17.30
2015,09,26,14,31,17.30
2015,09,26,14,32,17.40
2015,09,26,14,33,17.40
2015,09,26,14,34,17.40
2015,09,26,14,35,17.40
2015,09,26,14,36,17.40
2015,09,26,14,37,17.40
2015,09,26,14,38,17.40
2015,09,26,14,39,17.30
2015,09,26,14,40,17.20
2015,09,26,14,41,17.20
2015,09,26,14,42,17.20
2015,09,26,14,43,17.20
2015,09,26,14,44,17.20
2015,09,26,14,45,17.20
2015,09,26,14,46,17.20
2015,09,26,14,47,17.20
2015,09,26,14,48,17.20
2015,09,26,14,49,17.20
2015,09,26,14,50,17.20
2015,09,26,14,51,17.20
2015,09,26,14,52,17.10
2015,09,26,14,53,17.10
2015,09,26,14,54,17.00
2015,09,26,14,55,17.00
2015,09,26,14,56,17.00
2015,09,26,14,57,17.10
2015,09,26,14,58,17.10
2015,09,26,14,59,17.10
2015,09,26,15,00,17.10
2015,09,26,15,01,17.10
2015,09,26,15,02,17.10
2015,09,26,15,03,17.10
2015,09,26,15,04,17.10
2015,09,26,15,05,17.10
2015,09,26,15,06,17.10
2015,09,26,15,07,17.10
2015,09,26,15,08,17.10
2015,09,26,15,09,17.20
2015,09,26,15,10,17.20
2015,09,26,15,11,17.30
2015,09,26,15,12,17.40
2015,09,26,15,13,17.40
2015,09,26,15,14,17.30
2015,09,26,15,15,17.30
2015,09,26,15,16,17.30
2015,09,26,15,17,17.30
2015,09,26,15,18,17.30
2015,09,26,15,19,17.20
2015,09,26,15,20,17.20
2015,09,26,15,21,17.20
2015,09,26,15,22,17.20
2015,09,26,15,23,17.10
2015,09,26,15,24,17.10
2015,09,26,15,25,17.10
2015,09,26,15,26,17.10
2015,09,26,15,27,17.10
2015,09,26,15,28,17.00
2015,09,26,15,29,17.00
2015,09,26,15,30,16.90
2015,09,26,15,31,16.90
2015,09,26,15,32,16.80
2015,09,26,15,33,16.70
2015,09,26,15,34,16.60
2015,09,26,15,35,16.50
2015,09,26,15,36,16.50
2015,09,26,15,37,16.40
2015,09,26,15,38,16.30
2015,09,26,15,39,16.30
2015,09,26,15,40,16.20
2015,09,26,15,41,16.20
2015,09,26,15,42,16.20
2015,09,26,15,43,16.20
2015,09,26,15,44,16.10
2015,09,26,15,45,16.10
2015,09,26,15,46,16.00
2015,09,26,15,47,16.00
2015,09,26,15,48,15.90
2015,09,26,15,49,15.90
2015,09,26,15,50,15.80
2015,09,26,15,51,15.80
2015,09,26,15,52,15.70
2015,09,26,15,53,15.60
2015,09,26,15,54,15.50
2015,09,26,15,55,15.40
2015,09,26,15,56,15.40
2015,09,26,15,57,15.30
2015,09,26,15,58,15.30
2015,09,26,15,59,15.30
2015,09,26,16,00,15.30
2015,09,26,16,01,15.30
2015,09,26,16,02,15.20
2015,09,26,16,03,15.20
2015,09,26,16,04,15.10
2015,09,26,16,05,15.10
2015,09,26,16,06,15.00
2015,09,26,16,07,14.90
2015,09,26,16,08,14.90
2015,09,26,16,09,14.80
2015,09,26,16,10,14.80
2015,09,26,16,11,14.80
2015,09,26,16,12,14.80
2015,09,26,16,13,14.80
2015,09,26,16,14,14.80
2015,09,26,16,15,14.80
2015,09,26,16,16,14.80
2015,09,26,16,17,14.80
2015,09,26,16,18,14.70
2015,09,26,16,19,14.70
2015,09,26,16,20,14.60
2015,09,26,16,21,14.60
2015,09,26,16,22,14.60
2015,09,26,16,23,14.60
2015,09,26,16,24,14.60
2015,09,26,16,25,14.50
2015,09,26,16,26,14.50
2015,09,26,16,27,14.50
2015,09,26,16,28,14.40
2015,09,26,16,29,14.40
2015,09,26,16,30,14.40
2015,09,26,16,31,14.40
2015,09,26,16,32,14.30
2015,09,26,16,33,14.30
2015,09,26,16,34,14.30
2015,09,26,16,35,14.30
2015,09,26,16,36,14.30
2015,09,26,16,37,14.30
2015,09,26,16,38,14.30
2015,09,26,16,39,14.30
2015,09,26,16,40,14.30
2015,09,26,16,41,14.20
2015,09,26,16,42,14.20
2015,09,26,16,43,14.20
2015,09,26,16,44,14.20
2015,09,26,16,45,14.10
2015,09,26,16,46,14.10
2015,09,26,16,47,14.10
2015,09,26,16,48,14.00
2015,09,26,16,49,14.00
2015,09,26,16,50,14.10
2015,09,26,16,51,14.10
2015,09,26,16,52,14.20
2015,09,26,16,53,14.20
2015,09,26,16,54,14.30
2015,09,26,16,55,14.50
2015,09,26,16,56,14.70
2015,09,26,16,57,14.80
2015,09,26,16,58,14.90
2015,09,26,16,59,15.00
2015,09,26,17,00,15.10
2015,09,26,17,01,15.20
2015,09,26,17,02,15.20
2015,09,26,17,03,15.30
2015,09,26,17,04,15.30
2015,09,26,17,05,15.40
2015,09,26,17,06,15.40
2015,09,26,17,07,15.40
2015,09,26,17,08,15.40
2015,09,26,17,09,15.30
2015,09,26,17,10,15.30
2015,09,26,17,11,15.30
2015,09,26,17,12,15.20
2015,09,26,17,13,15.20
2015,09,26,17,14,15.20
2015,09,26,17,15,15.20
2015,09,26,17,16,15.20
2015,09,26,17,17,15.20
2015,09,26,17,18,15.10
2015,09,26,17,19,15.10
2015,09,26,17,20,15.00
2015,09,26,17,21,14.90
2015,09,26,17,22,14.90
2015,09,26,17,23,14.80
2015,09,26,17,24,14.80
2015,09,26,17,25,14.80
2015,09,26,17,26,14.80
2015,09,26,17,27,14.80
2015,09,26,17,28,14.80
2015,09,26,17,29,14.80
2015,09,26,17,30,14.80
2015,09,26,17,31,14.70
2015,09,26,17,32,14.70
2015,09,26,17,33,14.70
2015,09,26,17,34,14.70
2015,09,26,17,35,14.70
2015,09,26,17,36,14.70
2015,09,26,17,37,14.60
2015,09,26,17,38,14.60
2015,09,26,17,39,14.50
2015,09,26,17,40,14.40
2015,09,26,17,41,14.40
2015,09,26,17,42,14.30
2015,09,26,17,43,14.20
2015,09,26,17,44,14.20
2015,09,26,17,45,14.10
2015,09,26,17,46,14.10
2015,09,26,17,47,14.00
2015,09,26,17,48,13.90